New York Downtown Manhattan/w, NY

7:55 PM EDT on July 18, 2019 (GMT -0400)
New York Downtown Manhattan/w

Weather History for KJRB - May, 2019

Change the Weather History Date:

Tuesday, May 14, 2019

  Actual Average (KEWR) Record (KEWR)
Temperature  
Mean Temperature 50 °F -  
Max Temperature 55 °F 71 °F 86 °F (1985)
Min Temperature 46 °F 52 °F 36 °F (1939)
Degree Days  
Heating Degree Days 14    
Moisture  
Dew Point 46 °F    
Average Humidity 88    
Maximum Humidity 100    
Minimum Humidity 67    
Precipitation  
Precipitation 0.28 in - - ()
Sea Level Pressure  
Sea Level Pressure 29.83 in    
Wind  
Wind Speed 6 mph (ENE)    
Max Wind Speed 9 mph    
Max Gust Speed 68 mph    
Visibility 8 miles    
Events Rain    
Averages and records for this station are not official NWS values.
T = Trace of Precipitation, MM = Missing Value Source: NWS Daily Summary

Daily Weather History Graph

Daily Weather History Graph

Search for Another Location

Airport or City:

Astronomy

May. 14, 2019 Rise Set
Actual Time 5:40 AM EDT 8:05 PM EDT
Civil Twilight 5:09 AM EDT 8:36 PM EDT
Nautical Twilight 4:30 AM EDT 9:14 PM EDT
Astronomical Twilight 3:48 AM EDT 9:57 PM EDT
Moon 3:21 PM EDT (5/14) 3:34 AM EDT (5/14)
Length of Visible Light 15h 26m
Length of Day
14h 24m
Waxing Gibbous, 79% of the Moon is Illuminated
May 14
Waxing Gibbous
May 18
Full
May 26
Last Quarter
Jun 3
New
Jun 10
First Quarter

Hourly Weather History & Observations

Time (EDT) Temp. Windchill Dew Point Humidity Pressure Visibility Wind Dir Wind Speed Gust Speed Precip Events Conditions
12:56 AM 48.0 °F - 45.0 °F 89% 29.84 in 8.0 mi NE 8.1 mph - N/A   Overcast
1:56 AM 48.0 °F - 45.0 °F 89% 29.83 in 10.0 mi NNE 9.2 mph - N/A   Overcast
2:56 AM 46.9 °F - 44.1 °F 90% 29.82 in 10.0 mi NE 6.9 mph - N/A   Overcast
3:56 AM 46.9 °F - 44.1 °F 90% 29.82 in 10.0 mi ENE 9.2 mph - N/A   Overcast
4:56 AM 46.9 °F - 44.1 °F 90% 29.82 in 4.0 mi NE 6.9 mph - N/A   Overcast
5:06 AM 46.4 °F 41.9 °F 44.6 °F 93% 29.82 in 5.0 mi ENE 9.2 mph - N/A   Overcast
5:56 AM 46.0 °F 42.5 °F 44.1 °F 93% 29.83 in 10.0 mi ENE 6.9 mph - N/A   Overcast
6:23 AM 46.4 °F 43.5 °F 44.6 °F 93% 29.84 in 2.0 mi ENE 5.8 mph - N/A   Overcast
6:49 AM 46.4 °F 42.9 °F 44.6 °F 93% 29.84 in 3.0 mi NE 6.9 mph - N/A   Overcast
6:56 AM 46.9 °F - 45.0 °F 93% 29.84 in 3.0 mi NE 8.1 mph - N/A   Overcast
7:56 AM 48.0 °F - 46.0 °F 93% 29.85 in 10.0 mi NE 5.8 mph - N/A   Overcast
8:04 AM 46.4 °F 42.9 °F 46.4 °F 100% 29.85 in 10.0 mi Variable 6.9 mph - N/A   Overcast
8:32 AM 48.2 °F - 46.4 °F 93% 29.85 in 8.0 mi NE 4.6 mph - N/A   Overcast
8:39 AM 48.2 °F - 46.4 °F 93% 29.85 in 8.0 mi NE 3.5 mph - N/A   Overcast
8:56 AM 48.0 °F - 45.0 °F 89% 29.85 in 10.0 mi Calm Calm - N/A   Overcast
9:56 AM 48.9 °F - 44.1 °F 83% 29.85 in 10.0 mi Variable 3.5 mph - 0.01 in   Overcast
10:56 AM 51.1 °F - 45.0 °F 80% 29.85 in 10.0 mi Calm Calm - N/A   Overcast
11:56 AM 51.1 °F - 44.1 °F 77% 29.84 in 10.0 mi WSW 4.6 mph - N/A   Overcast
12:16 PM 53.6 °F - 44.6 °F 72% 29.84 in 10.0 mi Variable 4.6 mph - N/A   Overcast
12:25 PM 55.4 °F - 44.6 °F 67% 29.83 in 10.0 mi West 9.2 mph - N/A   Overcast
12:56 PM 53.1 °F - 45.0 °F 74% 29.83 in 10.0 mi SW 5.8 mph - N/A   Overcast
1:56 PM 53.1 °F - 45.0 °F 74% 29.82 in 10.0 mi SSW 6.9 mph - 0.00 in Rain Light Rain
2:51 PM 51.8 °F - 46.4 °F 82% 29.81 in 10.0 mi SSE 5.8 mph - 0.00 in   Overcast
2:56 PM 51.1 °F - 46.0 °F 83% 29.81 in 10.0 mi ESE 4.6 mph - 0.00 in   Overcast
4:52 PM 51.8 °F - 46.4 °F 82% 29.80 in 7.0 mi Variable 3.5 mph 67.9 mph 0.12 in   Squalls
4:56 PM 51.1 °F - 46.9 °F 86% 29.80 in 8.0 mi SSE 4.6 mph - 0.12 in   Overcast
5:56 PM 51.1 °F - 48.0 °F 89% 29.80 in 10.0 mi SE 5.8 mph - 0.00 in Rain Light Rain
6:56 PM 50.0 °F - 48.0 °F 93% 29.81 in 8.0 mi South 4.6 mph - 0.00 in   Overcast
7:16 PM 50.0 °F - 48.2 °F 94% 29.81 in 1.8 mi Calm Calm - 0.02 in Rain Rain
7:34 PM 50.0 °F - 48.2 °F 94% 29.82 in 2.0 mi Calm Calm - 0.09 in Rain Light Rain
7:45 PM 48.2 °F - 48.2 °F 100% 29.82 in 7.0 mi Calm Calm - 0.12 in Rain Light Rain
7:56 PM 50.0 °F - 48.0 °F 93% 29.83 in 10.0 mi Variable 3.5 mph - 0.13 in   Overcast
8:05 PM 50.0 °F - 48.2 °F 94% 29.83 in 10.0 mi Variable 3.5 mph - 0.00 in Rain Light Rain
8:37 PM 48.2 °F - 46.4 °F 93% 29.83 in 10.0 mi Variable 4.6 mph - 0.00 in Rain Light Rain
8:56 PM 48.9 °F - 46.9 °F 93% 29.84 in 10.0 mi WNW 3.5 mph - 0.01 in Rain Light Rain
9:21 PM 48.2 °F - 46.4 °F 93% 29.84 in 10.0 mi Variable 4.6 mph - 0.00 in Rain Light Rain
9:48 PM 48.2 °F - 46.4 °F 93% 29.84 in 10.0 mi WSW 5.8 mph - 0.00 in Rain Light Rain
9:56 PM 48.9 °F - 46.0 °F 90% 29.85 in 10.0 mi Variable 3.5 mph - 0.00 in Rain Light Rain
10:56 PM 48.0 °F - 45.0 °F 89% 29.84 in 10.0 mi West 4.6 mph - 0.01 in   Overcast
11:56 PM 48.0 °F - 44.1 °F 86% 29.85 in 10.0 mi Variable 3.5 mph - N/A   Overcast